Saint Charles, IL

6:37 AM CST on December 04, 2016 (GMT -0600)
Du Page

Weather History for KDPA - October, 2013

Change the Weather History Date:

Sunday, October 20, 2013

  Actual Average Record
Temperature  
Mean Temperature 48 °F 51 °F  
Max Temperature 61 °F 62 °F 84 °F (2003)
Min Temperature 34 °F 41 °F 27 °F (2002)
Degree Days  
Heating Degree Days 17 14  
Month to date heating degree days 188 225  
Since 1 July heating degree days 313 336  
Cooling Degree Days 0 0  
Month to date cooling degree days 16 11  
Year to date cooling degree days 745 814  
Moisture  
Dew Point 41 °F    
Average Humidity 76    
Maximum Humidity 93    
Minimum Humidity 53    
Precipitation  
Precipitation T in 0.10 in 0.17 in (2008)
Month to date precipitation 0.87 2.12  
Year to date precipitation 30.33 31.04  
Sea Level Pressure  
Sea Level Pressure 29.81 in    
Wind  
Wind Speed 6 mph (SSW)    
Max Wind Speed 16 mph    
Max Gust Speed 20 mph    
Visibility 10 miles    
Events Rain    
T = Trace of Precipitation, MM = Missing Value Source: NWS Daily Summary

Daily Weather History Graph

Daily Weather History Graph

Search for Another Location

Airport or City:

Trip Planner

Search our weather history database for the weather conditions in past years. The results will help you decide how hot, cold, wet, or windy it might be!

Date:

Astronomy

Oct. 20, 2013 Rise Set
Actual Time 7:11 AM CDT 6:03 PM CDT
Civil Twilight 6:43 AM CDT 6:31 PM CDT
Nautical Twilight 6:10 AM CDT 7:04 PM CDT
Astronomical Twilight 5:38 AM CDT 7:36 PM CDT
Moon 7:10 PM CDT (10/20) 8:50 AM CDT (10/20)
Length of Visible Light 11h 48m
Length of Day
10h 51m
Full, 97% of the Moon is Illuminated
Oct 20
Full
Oct 26
Last Quarter
Nov 3
New
Nov 9
First Quarter
Nov 17
Full

Hourly Weather History & Observations

Time (CDT) Temp. Windchill Dew Point Humidity Pressure Visibility Wind Dir Wind Speed Gust Speed Precip Events Conditions
12:52 AM 44.1 °F 41.5 °F 37.9 °F 79% 29.83 in 10.0 mi SW 4.6 mph - N/A   Overcast
1:52 AM 41.0 °F 37.1 °F 36.0 °F 82% 29.83 in 10.0 mi SSW 5.8 mph - N/A   Mostly Cloudy
2:52 AM 37.9 °F - 36.0 °F 93% 29.83 in 10.0 mi Calm Calm - N/A   Partly Cloudy
3:52 AM 37.9 °F 32.1 °F 35.1 °F 89% 29.83 in 10.0 mi SW 8.1 mph - N/A   Clear
4:52 AM 37.0 °F - 35.1 °F 93% 29.83 in 10.0 mi Calm Calm - N/A   Clear
5:52 AM 37.0 °F 31.0 °F 34.0 °F 89% 29.86 in 10.0 mi SW 8.1 mph - N/A   Mostly Cloudy
6:52 AM 36.0 °F 32.1 °F 34.0 °F 93% 29.86 in 10.0 mi WSW 4.6 mph - N/A   Mostly Cloudy
7:52 AM 37.0 °F 34.5 °F 35.1 °F 93% 29.87 in 9.0 mi WSW 3.5 mph - N/A   Mostly Cloudy
8:52 AM 41.0 °F 38.0 °F 37.9 °F 89% 29.89 in 10.0 mi South 4.6 mph - N/A   Partly Cloudy
9:52 AM 44.1 °F - 37.9 °F 79% 29.88 in 10.0 mi Calm Calm - N/A   Overcast
10:52 AM 46.9 °F - 39.0 °F 74% 29.88 in 10.0 mi SSE 6.9 mph - N/A   Overcast
11:52 AM 48.9 °F - 39.9 °F 71% 29.87 in 10.0 mi South 6.9 mph - N/A   Overcast
12:52 PM 53.1 °F - 42.1 °F 66% 29.83 in 10.0 mi South 8.1 mph - 0.00 in   Overcast
1:52 PM 57.0 °F - 43.0 °F 59% 29.79 in 10.0 mi South 10.4 mph - N/A   Mostly Cloudy
2:52 PM 57.9 °F - 43.0 °F 58% 29.77 in 10.0 mi South 12.7 mph - N/A   Scattered Clouds
3:52 PM 60.1 °F - 43.0 °F 53% 29.74 in 10.0 mi South 13.8 mph - N/A   Scattered Clouds
4:52 PM 59.0 °F - 44.1 °F 58% 29.73 in 10.0 mi South 8.1 mph - N/A   Mostly Cloudy
5:52 PM 57.9 °F - 45.0 °F 62% 29.74 in 10.0 mi Calm Calm - N/A   Overcast
6:52 PM 53.1 °F - 46.9 °F 80% 29.74 in 10.0 mi SW 3.5 mph - N/A   Overcast
7:52 PM 55.0 °F - 46.9 °F 74% 29.77 in 10.0 mi WSW 4.6 mph - 0.00 in Rain Light Rain
8:52 PM 55.0 °F - 45.0 °F 69% 29.79 in 10.0 mi West 4.6 mph - 0.00 in   Overcast
9:52 PM 54.0 °F - 45.0 °F 72% 29.79 in 10.0 mi SSW 6.9 mph - 0.00 in   Overcast
10:52 PM 54.0 °F - 45.0 °F 72% 29.79 in 10.0 mi South 6.9 mph - 0.00 in   Overcast
11:52 PM 54.0 °F - 46.9 °F 77% 29.79 in 10.0 mi South 9.2 mph - 0.00 in   Overcast